Theta_e
319 318 318 318 317 318 317 317 318 319 319 319 320 319 318 319 320 320 319 318 319 319 318 317 316 316 316 316 315 314 313 312 312 312 312 312 312 311 310 310 310 309 309 309 309 308 307 307 307 307 307 305 304 304 304 304 305 305 306 308 309 311 312 315 318 321 324 325 326 328 329 331 331 330 332 333 332 332 332 334 336 337 339 338 339 340 339
319 318 317 317 316 316 316 316 317 318 318 319 320 319 318 319 320 319 319 320 321 319 317 315 315 316 315 315 314 313 312 312 313 312 312 311 311 310 310 309 309 309 309 308 308 308 307 307 306 307 306 305 304 303 303 303 304 304 305 307 308 310 312 315 318 321 323 324 325 328 329 330 330 329 330 331 330 330 332 333 334 336 337 338 339 340 339
317 317 316 316 316 316 317 317 317 317 317 317 318 318 318 319 319 319 319 321 320 318 315 314 315 315 314 314 314 313 312 313 313 312 312 311 311 310 309 309 309 309 309 308 308 308 308 307 306 306 306 305 305 304 303 303 303 304 304 306 308 311 313 315 318 320 322 323 325 327 328 329 329 327 328 329 328 329 331 333 333 334 335 336 338 339 338
316 316 316 317 316 316 317 317 317 317 317 317 317 317 317 317 318 318 320 320 319 316 314 314 315 315 314 314 314 313 312 312 313 313 311 311 310 310 309 309 309 309 308 308 308 308 308 307 306 306 305 305 305 304 303 302 302 303 304 306 309 311 313 315 318 320 321 322 323 324 326 328 329 328 327 327 326 328 330 331 332 333 333 334 336 336 336
315 315 315 316 316 316 317 318 318 317 317 317 317 317 317 318 318 319 318 319 317 315 314 315 314 315 314 314 313 312 312 312 313 312 311 311 310 309 309 309 308 309 308 308 308 308 308 307 306 305 305 305 305 303 302 302 302 303 305 307 310 312 313 315 317 318 319 320 321 322 323 325 327 327 326 325 326 328 330 331 332 332 332 333 334 334 334
315 315 315 316 316 317 318 318 318 317 316 316 317 317 317 318 319 319 318 317 316 315 315 315 315 315 314 313 313 312 312 313 313 312 311 310 310 309 309 309 308 308 309 309 308 308 308 307 306 305 305 304 303 303 302 302 303 304 306 308 309 311 312 313 315 316 317 318 319 320 321 322 324 326 326 325 327 329 330 330 331 331 332 332 333 333 334
315 314 315 316 317 317 317 317 317 317 316 317 317 317 316 316 317 317 316 315 315 315 315 315 314 314 313 313 312 312 312 312 312 311 311 310 309 309 309 308 308 309 309 309 308 308 308 307 306 306 305 303 303 303 303 302 303 304 306 307 308 309 310 310 311 312 313 315 316 318 320 321 322 324 326 326 327 329 330 330 330 330 331 332 332 333 333
315 315 316 318 318 317 316 317 317 317 317 316 316 317 316 315 316 316 315 315 315 315 315 314 313 313 313 312 312 312 312 311 311 310 310 309 309 309 308 308 309 309 309 308 308 308 308 307 307 307 305 303 303 304 303 303 303 304 305 306 307 308 308 308 309 310 311 312 314 316 318 320 321 323 325 326 325 326 327 329 331 331 331 332 332 332 332
315 315 316 318 318 317 317 317 317 317 316 316 316 316 316 315 315 315 315 315 315 315 314 313 313 313 313 312 312 312 311 311 310 310 309 309 309 308 308 308 308 308 308 307 307 307 307 307 307 307 305 303 303 304 304 304 303 304 304 304 305 306 306 307 308 309 310 311 312 314 316 318 319 321 323 325 325 325 325 327 329 330 331 330 331 331 331
315 315 316 317 318 317 317 317 317 317 316 316 316 316 315 315 315 315 315 315 315 314 314 314 313 313 312 312 312 311 310 310 310 309 309 309 309 308 308 308 308 307 307 307 307 307 307 307 307 307 305 303 304 305 305 304 303 303 303 302 303 304 304 305 306 307 308 310 311 312 313 314 315 317 319 322 324 325 325 326 327 329 329 329 330 331 331
316 317 317 318 318 317 316 316 317 316 316 317 316 314 315 315 315 314 314 315 314 314 314 314 313 313 312 312 311 311 310 309 309 309 309 308 308 308 307 307 307 307 306 306 306 306 306 306 307 307 306 305 305 305 305 304 304 304 302 301 301 301 302 304 304 305 307 307 308 309 310 310 312 313 315 319 322 324 326 327 328 329 328 327 329 331 332
317 317 317 317 316 316 316 316 316 315 315 315 314 314 315 316 315 314 314 314 314 314 314 314 313 312 312 311 311 311 310 309 309 309 309 308 308 308 307 307 306 306 306 306 306 306 306 306 306 306 306 306 306 306 305 305 305 303 302 300 300 300 301 303 303 304 305 305 306 306 307 308 309 311 312 314 318 321 324 326 328 328 327 327 328 329 330
318 318 318 317 316 316 316 316 315 315 315 315 314 315 316 315 314 314 314 314 314 314 314 314 313 312 312 312 311 310 310 309 309 309 309 308 308 307 306 306 306 306 306 305 305 305 306 306 305 305 306 306 307 306 306 305 304 303 301 300 299 300 301 302 302 303 303 303 303 304 304 306 307 308 309 310 312 316 320 324 326 328 329 328 328 329 329
318 318 319 318 317 317 316 316 315 315 315 315 315 316 315 314 314 314 314 314 313 313 313 313 313 312 311 311 311 310 309 309 309 309 308 308 307 307 306 306 305 305 305 305 305 305 305 305 305 305 306 306 306 306 305 305 303 302 300 299 299 300 301 301 301 301 301 301 302 302 303 304 305 305 307 308 309 311 315 320 324 327 328 328 328 329 331
317 318 319 319 318 316 315 315 315 314 314 314 315 315 314 314 314 314 314 313 313 313 313 313 313 311 311 310 310 309 309 309 309 309 308 308 307 307 306 305 305 305 305 305 305 305 305 305 305 305 306 306 306 305 305 304 302 300 299 300 300 301 301 301 301 300 300 300 300 301 301 302 303 304 305 306 308 310 312 316 321 325 328 329 330 331 332
316 317 318 318 317 316 315 314 314 314 314 314 314 314 313 313 313 313 313 313 312 312 313 312 312 311 310 310 309 309 309 308 308 308 308 308 307 306 305 305 304 304 304 304 304 304 304 305 305 305 306 306 305 304 303 302 300 299 300 301 302 301 301 301 300 299 299 299 299 300 301 301 302 303 304 305 306 308 311 314 319 323 325 329 332 333 332
314 315 316 316 315 315 315 315 315 314 314 314 315 314 313 313 313 313 313 313 312 312 312 312 311 311 310 310 309 309 308 308 308 308 308 307 306 305 305 304 304 304 304 304 304 304 304 305 305 305 306 306 305 303 302 300 299 300 302 302 302 301 300 300 299 298 298 298 298 299 300 301 302 303 304 305 306 307 310 313 317 321 323 326 331 333 332
314 314 314 314 314 314 314 315 315 315 314 314 314 314 313 313 313 313 313 313 312 312 312 312 311 310 310 309 309 308 308 308 308 307 307 306 305 305 304 304 304 304 304 304 304 304 304 304 304 305 306 305 304 302 301 300 300 301 302 302 301 300 300 299 298 298 297 297 298 299 300 302 303 304 304 305 306 306 306 308 311 316 321 324 328 331 331
315 315 314 313 314 315 314 313 314 314 314 313 314 314 314 313 313 313 313 312 312 312 312 312 311 310 310 309 308 308 307 307 307 307 306 306 305 304 304 304 303 303 304 304 304 304 304 304 304 305 305 305 303 302 301 301 302 302 302 301 300 300 299 298 297 297 297 297 298 300 301 302 303 302 303 304 304 300 298 298 301 308 316 321 324 329 331
315 315 314 313 314 314 313 313 313 313 313 314 314 314 314 313 313 313 313 312 312 312 312 311 310 310 309 309 308 308 307 306 306 306 306 305 304 304 304 303 303 303 303 304 304 303 304 304 304 304 305 304 303 301 301 302 302 301 300 300 300 299 298 297 297 296 296 296 297 300 301 299 298 298 299 300 299 295 294 293 294 299 308 312 314 317 322
313 313 313 313 313 313 313 313 314 314 313 313 313 313 313 313 312 312 312 312 312 311 311 311 310 310 309 308 308 307 306 306 306 306 305 305 304 304 303 303 303 303 303 303 303 303 304 304 304 304 304 303 302 301 301 301 301 300 300 300 300 299 297 297 296 296 295 295 297 299 300 298 295 294 295 296 295 293 292 292 291 294 299 303 303 303 306
313 313 312 313 314 314 313 313 314 314 313 312 312 312 312 312 312 312 312 312 312 311 311 311 310 309 309 308 307 307 306 306 306 305 305 305 304 304 303 303 303 303 303 303 303 303 304 303 304 304 304 303 302 301 301 301 299 299 299 299 299 298 297 296 296 295 295 295 295 297 299 299 297 296 295 295 295 294 292 292 292 293 296 298 299 299 299
313 312 312 313 314 314 313 313 313 313 312 312 312 312 312 312 312 312 312 312 312 311 311 311 310 309 309 308 307 307 306 306 306 306 305 304 304 303 303 303 303 302 302 302 303 303 303 303 303 304 304 303 302 302 301 300 299 298 299 298 298 298 297 296 296 295 294 294 294 295 296 297 297 297 297 297 297 295 294 292 292 292 294 296 298 299 298
312 312 312 313 314 314 313 313 313 312 312 312 312 311 311 312 312 312 312 311 311 311 311 310 310 309 308 308 307 307 306 306 306 305 304 304 304 304 303 303 302 301 301 302 302 303 303 303 303 304 303 303 302 302 301 299 298 298 298 298 297 297 296 296 296 296 294 294 294 294 294 294 294 295 296 296 296 296 295 294 292 292 292 293 295 297 298
312 312 312 312 312 313 313 313 313 313 312 311 311 311 311 311 311 311 311 311 311 311 311 310 310 309 308 308 307 306 306 306 305 304 303 304 304 303 303 301 300 300 301 301 301 302 302 302 303 303 303 302 302 302 301 299 298 299 298 297 296 296 295 296 297 296 295 294 294 293 293 293 293 293 293 294 294 294 294 293 293 292 292 292 292 293 295
312 312 312 312 312 313 313 313 313 312 311 312 312 312 311 311 311 311 311 311 311 311 310 310 309 309 308 307 306 306 306 305 304 303 304 304 304 302 301 300 299 299 300 300 300 301 301 302 303 303 302 301 302 302 301 299 299 300 298 296 295 295 295 296 297 296 295 294 294 293 293 293 292 292 292 292 292 292 292 292 292 292 292 292 291 291 292
311 311 311 312 313 313 313 312 312 312 311 312 312 311 311 311 312 311 310 311 311 311 310 310 309 308 307 306 306 306 305 304 304 304 304 304 303 301 300 299 298 299 300 300 299 300 301 301 302 302 301 301 301 302 301 300 301 300 298 296 295 295 295 296 297 296 295 294 293 293 293 292 292 292 292 291 291 291 291 291 291 291 291 291 291 291 291
311 311 311 312 313 313 313 313 313 312 312 311 311 311 311 311 311 311 311 311 311 310 310 309 308 308 307 306 306 306 305 304 305 305 304 304 302 300 299 298 298 298 299 299 298 299 300 300 301 301 300 300 301 301 301 301 301 300 299 297 297 296 296 297 297 297 296 294 293 293 292 292 292 292 291 291 291 290 290 290 289 289 289 289 290 291 291
312 311 312 312 312 313 313 313 313 312 311 311 311 311 310 310 310 310 310 310 310 310 310 309 308 307 307 306 305 305 305 304 304 305 304 302 301 299 298 297 297 298 298 298 297 298 299 299 299 299 299 299 300 301 301 301 301 300 299 298 297 296 296 297 297 297 296 295 294 293 293 292 292 291 291 291 291 290 290 289 289 288 288 288 288 289 290
312 312 313 312 312 312 312 312 312 311 310 310 311 310 310 310 310 310 310 310 310 310 309 309 308 307 307 306 306 305 305 304 303 303 303 301 300 299 298 297 297 297 297 297 297 297 298 298 298 297 298 298 299 300 300 300 301 301 300 299 298 298 297 297 297 297 296 295 294 294 293 293 292 291 291 291 290 290 290 289 289 288 288 287 287 287 288
312 313 313 313 314 313 312 312 312 312 311 311 311 310 310 310 310 310 310 310 310 310 310 309 308 307 307 306 306 305 304 303 302 302 302 301 299 298 297 297 297 297 297 296 296 296 297 297 296 295 296 297 298 298 299 299 300 301 301 300 299 298 298 298 298 297 296 296 295 295 294 293 293 292 291 291 291 290 290 289 289 288 287 287 286 286 286
312 313 313 313 314 314 313 312 312 312 312 311 311 311 311 311 310 310 310 310 310 310 309 308 308 307 307 306 306 305 304 303 302 302 302 300 299 298 297 296 297 297 297 296 295 295 296 295 294 294 295 296 297 296 297 297 299 300 301 301 300 300 299 299 299 298 297 296 296 295 295 294 293 293 292 292 291 291 290 290 289 288 287 286 286 286 286
313 313 313 313 313 314 314 313 313 313 313 312 312 312 312 311 311 310 310 310 310 310 309 309 308 307 307 306 305 305 304 303 302 301 301 300 299 298 297 296 296 297 297 295 294 295 295 294 292 292 294 295 296 295 295 296 297 299 301 301 300 300 300 300 299 299 298 297 296 295 295 294 294 294 293 293 292 292 291 290 290 289 288 287 286 285 285
314 313 313 313 314 316 316 315 314 314 314 313 312 312 312 311 311 310 310 310 310 310 310 309 308 307 307 306 305 304 304 302 301 301 301 301 299 298 297 296 296 297 297 296 294 295 294 292 291 292 293 295 295 293 293 295 296 297 299 300 299 299 299 299 299 299 299 298 297 296 295 294 294 294 294 294 293 293 292 291 290 289 289 288 287 286 285
313 313 313 313 313 315 316 315 314 313 314 313 313 312 312 312 311 311 310 311 310 310 309 309 308 307 306 305 305 305 304 302 301 301 301 300 299 297 297 297 296 297 298 296 294 294 294 291 290 291 292 294 294 292 291 293 295 295 297 299 299 298 298 298 298 298 298 298 298 297 296 296 296 296 295 295 294 294 293 291 290 289 289 288 287 287 286
312 312 312 312 312 313 315 315 314 313 313 313 313 313 313 312 312 311 311 310 310 310 309 308 307 306 306 306 305 304 303 302 301 300 300 300 298 297 296 297 296 296 297 296 295 294 293 290 289 292 292 293 294 292 290 291 294 294 295 297 297 297 297 297 297 297 297 296 297 297 296 296 296 296 295 295 294 294 293 292 291 289 289 288 288 287 287
311 311 311 312 312 313 313 314 314 313 313 313 313 313 312 312 311 311 310 310 310 309 308 307 307 306 306 306 304 303 303 302 301 300 299 299 297 296 297 297 296 295 296 296 295 294 291 288 290 293 293 293 293 291 289 290 293 294 295 296 296 296 296 296 296 295 295 295 296 296 295 295 295 295 294 294 293 292 292 292 291 290 289 289 288 287 287
311 311 311 311 312 313 313 312 313 313 313 312 313 312 312 311 311 311 311 310 310 309 308 306 306 305 305 305 304 303 303 301 300 299 299 298 297 296 296 296 296 296 296 295 294 293 290 288 290 293 293 292 292 291 289 290 292 293 294 295 295 294 295 295 295 294 294 294 294 294 294 293 293 293 293 292 292 291 291 290 290 290 289 288 288 287 287
311 311 311 311 312 312 312 312 312 312 312 312 312 312 311 311 311 311 311 310 309 308 307 305 304 304 304 304 303 303 302 301 299 298 298 297 296 297 296 295 296 294 292 292 293 292 289 288 291 293 293 292 291 290 290 291 292 292 293 294 294 293 293 293 293 293 293 293 293 293 292 292 292 291 291 291 291 290 290 290 289 289 288 288 287 287 286
311 311 311 311 312 312 311 311 312 311 311 311 312 311 311 311 311 311 311 310 309 307 305 304 304 303 303 303 303 303 302 300 298 298 297 297 296 296 296 295 294 292 290 291 293 291 288 288 290 292 292 291 289 288 290 291 292 292 292 293 292 293 293 292 293 293 292 292 292 292 292 291 291 290 290 290 290 290 289 289 289 289 288 288 287 287 286
311 311 311 311 312 312 311 311 311 311 311 311 311 311 311 311 311 311 310 309 308 306 304 303 303 303 302 303 303 302 301 300 298 297 297 297 296 296 296 296 295 292 290 290 291 290 289 289 289 289 289 290 289 288 290 292 292 292 292 292 291 292 292 292 292 292 292 291 291 291 291 291 290 290 289 289 289 289 289 288 288 288 288 287 287 286 286
310 311 311 311 311 311 311 311 311 311 311 311 311 311 311 311 311 311 310 308 307 305 303 303 303 302 302 303 302 301 301 300 298 297 297 296 296 296 297 296 295 292 289 288 290 292 292 291 289 287 286 288 288 289 290 291 292 291 291 291 291 291 291 291 291 291 291 291 291 290 290 290 290 289 289 289 288 288 288 288 287 287 287 287 286 286 286
310 310 310 310 310 311 311 311 311 311 311 311 310 310 311 310 310 310 309 307 305 304 302 302 302 302 302 302 301 301 301 300 298 297 297 296 296 297 297 295 293 291 288 287 291 293 292 291 289 287 285 286 288 289 290 291 291 291 291 291 291 291 290 290 290 290 290 290 290 289 289 289 288 288 288 288 288 287 287 287 287 286 286 286 286 285 285
310 310 310 310 310 310 310 311 311 310 311 311 310 311 311 310 309 309 308 306 305 303 303 302 302 301 301 301 301 301 301 299 298 297 296 295 295 296 296 294 292 289 287 289 292 293 291 289 288 286 284 286 288 290 290 291 291 291 291 291 291 290 290 290 290 290 290 290 289 289 288 288 288 287 287 287 287 287 286 286 286 286 285 285 285 285 284
310 310 310 310 310 310 310 310 310 310 311 310 310 310 310 310 309 308 307 305 304 303 303 303 302 301 301 301 301 300 300 299 297 297 296 296 295 295 295 294 292 288 287 289 292 291 289 288 287 285 284 286 289 289 290 291 291 291 291 291 290 290 290 289 289 289 289 289 289 288 288 287 287 287 286 286 286 285 285 285 285 285 284 284 284 284 284
310 310 310 310 310 310 310 310 310 310 310 310 310 310 309 309 309 307 306 305 304 303 303 302 302 301 301 300 300 299 299 298 297 297 296 296 296 294 293 293 291 288 287 289 291 291 289 288 286 284 285 287 289 289 290 291 290 290 290 290 290 290 290 289 288 288 287 287 287 287 287 287 286 286 286 286 285 285 285 285 285 284 284 284 283 283 283
310 310 310 309 309 309 309 309 310 310 310 310 310 310 309 309 308 307 306 305 305 304 303 302 302 301 300 299 299 299 298 298 298 297 296 295 295 293 292 291 290 288 287 289 291 291 289 286 284 283 285 287 289 290 290 290 290 290 290 290 290 290 290 289 288 288 287 287 287 286 287 287 286 286 285 285 285 284 284 284 284 284 284 283 283 283 283
310 310 310 309 309 309 309 309 310 309 309 310 310 309 308 308 307 306 306 305 305 304 303 302 302 301 301 299 299 299 298 297 298 297 295 294 294 292 291 290 290 288 287 289 290 290 288 286 284 283 285 287 289 290 290 290 289 290 289 289 289 289 289 289 288 288 287 287 287 287 287 287 286 286 285 285 284 284 283 283 283 283 283 283 283 283 282
310 309 309 309 309 309 309 309 309 309 309 309 309 309 308 307 307 306 306 305 305 304 303 302 302 301 301 300 299 299 298 297 297 297 295 294 293 292 291 290 289 287 287 288 289 288 287 285 284 284 285 288 289 290 289 289 288 288 288 288 288 287 287 287 288 287 287 287 287 286 286 286 285 285 285 285 284 283 283 282 282 282 283 283 283 282 282
309 309 309 310 310 310 309 309 309 309 309 309 309 309 308 307 307 306 306 305 305 304 303 302 302 301 301 300 299 299 298 297 297 296 295 294 293 291 290 290 288 286 287 288 289 287 285 284 283 284 286 288 289 289 289 288 288 287 287 287 286 285 285 285 286 286 286 286 286 286 285 285 284 284 284 284 283 283 283 282 282 282 282 282 282 282 282
308 309 309 309 309 309 309 309 309 309 310 310 309 308 308 307 306 306 305 305 305 304 303 303 302 302 301 300 299 298 297 297 296 295 294 294 292 291 290 289 287 286 287 290 290 288 286 284 283 284 286 288 289 288 288 288 287 286 287 287 286 285 285 285 286 286 285 285 285 285 285 285 284 284 284 283 283 283 283 283 282 282 282 282 282 282 281
308 308 308 308 308 308 309 309 308 308 309 309 309 308 308 307 306 306 305 305 304 304 304 303 302 302 301 300 299 298 297 296 295 294 294 294 292 291 290 289 287 286 288 291 290 289 287 286 285 284 286 288 288 287 287 287 287 286 286 286 286 286 286 286 285 285 285 285 285 285 285 284 284 284 284 283 283 283 283 283 282 282 282 281 281 281 281
Wind_Speed
13 14 15 14 13 12 13 13 14 14 13 13 12 12 13 11 8 9 10 9 10 10 8 7 6 5 4 5 5 5 8 9 9 9 8 8 9 10 11 11 11 11 12 12 13 16 20 21 23 24 25 28 31 31 29 26 26 26 26 25 25 25 25 26 27 26 24 23 21 20 20 17 13 14 17 19 24 27 27 31 32 32 33 33 33 36 38
13 14 15 15 14 13 13 13 14 14 14 13 13 13 14 13 13 13 14 14 11 8 8 7 4 4 5 5 5 7 10 9 8 9 9 8 10 11 11 11 11 12 13 13 14 18 19 20 22 23 24 27 32 33 29 25 25 26 26 25 24 24 24 25 26 26 23 21 19 19 20 18 13 11 15 16 23 26 24 26 29 30 31 31 30 31 35
11 13 13 13 12 11 13 15 15 15 14 14 13 12 12 12 13 13 13 14 10 5 4 5 4 4 6 6 7 9 9 8 8 9 9 9 11 12 12 12 11 12 13 13 15 18 17 18 21 22 22 25 28 31 29 24 24 26 26 26 25 23 24 24 25 24 21 18 18 19 19 17 13 11 13 15 21 24 22 22 27 30 29 28 28 29 30
9 11 12 13 11 11 14 15 15 14 12 11 10 10 10 10 11 11 9 9 7 3 2 5 5 6 7 7 7 8 7 6 7 8 9 9 10 12 12 12 12 13 13 13 15 16 14 14 18 21 23 25 26 29 28 24 24 26 26 26 25 22 22 23 23 21 19 18 18 18 19 18 14 9 12 14 18 21 21 21 25 28 29 28 27 26 27
8 10 13 13 11 11 11 8 6 6 7 7 7 8 9 8 9 9 7 6 5 5 6 8 7 7 7 6 6 7 6 5 5 7 9 10 11 12 12 13 13 12 12 12 16 17 13 11 17 22 23 24 25 27 27 24 25 26 26 26 24 22 21 22 21 19 18 18 19 18 19 19 16 10 9 13 16 19 22 22 23 24 26 27 26 24 24
8 11 13 12 10 9 5 2 3 4 4 5 6 8 9 8 7 7 7 8 7 6 8 8 7 7 6 6 7 6 3 3 4 7 9 10 11 12 11 12 12 11 12 14 17 20 15 12 19 22 20 20 24 28 26 24 25 26 26 25 24 22 21 22 21 20 20 19 19 19 19 19 18 14 11 13 16 19 21 22 22 22 23 25 25 23 22
7 9 9 9 8 5 2 3 5 4 3 2 5 8 9 9 8 9 9 10 8 7 6 6 7 7 7 7 7 4 5 3 5 8 9 10 11 11 12 12 11 10 13 16 18 21 18 16 19 20 17 19 24 27 28 25 24 25 26 25 24 22 22 23 22 22 23 22 21 20 19 18 18 15 12 12 14 17 18 20 22 24 25 25 24 23 24
7 7 6 7 7 7 9 11 7 2 3 1 5 7 7 7 8 8 8 8 7 6 6 6 6 7 8 7 4 7 5 4 7 8 9 10 10 11 12 12 11 12 14 16 18 20 21 20 20 16 15 18 22 25 28 27 24 25 26 24 23 22 22 23 23 23 24 23 23 22 20 18 17 14 12 12 13 14 15 16 19 22 24 24 23 24 26
7 7 7 7 8 9 10 7 3 5 3 3 4 4 7 8 8 8 7 5 4 4 5 6 6 6 8 5 3 7 4 5 7 8 9 10 11 12 13 15 15 15 16 17 19 20 21 23 21 17 15 16 20 24 26 26 25 24 25 25 24 23 22 22 23 23 23 23 22 21 20 19 18 17 15 13 13 13 13 13 16 20 21 22 22 23 25
5 7 8 7 8 9 5 0 3 4 3 4 3 4 7 5 4 4 4 2 2 4 5 6 6 6 7 4 4 5 5 6 7 8 9 10 12 13 15 16 17 17 17 18 19 20 21 22 22 20 17 15 19 23 24 25 25 23 22 25 25 24 24 24 24 24 23 23 22 21 20 19 19 20 20 17 15 14 13 12 14 17 18 19 21 21 22
5 7 7 6 7 7 3 1 3 3 4 4 1 4 3 3 5 4 2 2 2 4 5 6 6 6 6 4 1 5 10 10 8 8 8 10 13 15 16 16 16 17 18 18 19 20 21 22 23 23 19 14 16 22 24 24 22 18 20 25 25 25 26 25 25 25 24 23 22 22 21 20 19 19 20 18 17 16 15 13 12 13 14 17 20 19 20
6 7 8 7 6 6 7 6 1 5 6 3 3 4 1 3 4 4 3 4 4 4 5 5 5 5 5 5 5 8 11 10 9 9 9 10 13 15 16 15 15 16 17 17 19 20 20 21 23 24 22 17 16 20 24 24 20 16 19 23 24 25 25 25 24 25 24 23 23 23 22 21 19 18 18 19 18 18 17 15 15 14 13 16 19 20 19
6 7 8 7 5 6 9 6 4 8 4 1 5 4 1 2 3 3 3 4 4 5 5 4 4 4 4 6 7 8 9 9 9 10 11 12 14 15 15 14 15 16 17 17 19 20 20 21 23 24 23 20 18 20 22 22 22 21 21 22 23 24 24 24 24 24 24 24 24 23 22 21 20 19 18 19 20 20 18 17 16 15 13 14 17 19 18
6 6 7 6 5 4 4 5 8 7 1 4 3 1 2 1 3 3 3 4 4 4 4 4 4 5 6 7 8 8 9 10 9 9 11 12 13 15 14 14 15 16 16 17 19 20 21 21 22 23 22 20 19 21 21 23 25 26 23 23 23 24 23 23 23 24 24 24 24 23 22 21 21 21 19 18 19 20 20 18 17 15 13 14 17 18 16
5 6 7 6 5 1 4 4 3 4 3 3 4 2 2 3 5 4 4 5 4 3 3 4 5 6 7 8 8 9 9 9 8 8 10 10 11 14 15 15 15 15 15 17 18 19 20 21 21 22 21 19 20 22 22 24 26 26 25 24 24 22 22 23 23 23 25 25 25 23 23 22 22 21 19 19 18 18 19 19 18 16 14 15 17 17 14
4 6 6 4 2 2 2 1 3 3 4 5 4 3 4 4 4 5 5 4 3 2 2 5 6 7 7 8 9 9 9 9 8 7 8 10 11 13 15 15 15 15 15 17 18 18 19 20 20 20 19 19 20 21 23 24 25 26 26 25 24 22 21 22 22 23 25 27 26 24 23 23 21 20 19 19 18 19 19 18 17 17 15 14 15 13 12
5 6 6 6 7 7 5 5 5 7 8 7 5 6 6 5 5 5 5 5 3 1 2 6 6 6 7 8 9 9 9 9 9 8 8 9 10 12 14 15 14 14 15 16 17 18 19 19 19 19 19 19 18 20 22 23 24 26 26 26 25 23 22 21 21 22 26 28 27 25 24 21 19 19 18 17 17 18 19 18 17 17 16 13 13 12 11
8 8 10 11 11 9 8 7 6 7 8 6 6 8 8 7 7 6 5 6 4 1 2 6 6 6 7 8 9 9 8 9 9 8 9 10 12 13 13 14 14 14 15 15 16 17 18 18 18 18 19 18 17 19 22 23 24 26 27 26 24 23 22 22 21 23 26 27 27 27 26 20 16 16 17 16 16 18 19 20 18 17 17 15 13 14 11
8 7 8 11 10 7 8 10 10 10 10 8 7 6 6 7 8 7 5 5 4 2 4 6 6 6 7 9 9 8 8 9 9 9 9 10 12 11 12 13 14 14 14 15 16 17 17 17 17 18 19 18 18 20 21 22 24 26 26 25 24 23 23 22 22 24 26 27 27 27 22 18 17 16 16 15 16 21 22 22 20 18 18 16 9 10 12
8 9 11 13 12 11 11 12 11 11 11 9 6 5 6 7 7 5 4 4 4 3 5 5 5 6 7 8 9 8 8 8 8 8 8 10 10 10 11 13 13 13 13 15 15 16 16 16 17 18 17 17 20 22 21 22 24 26 24 23 23 23 23 22 24 26 26 26 26 23 21 26 26 23 18 15 16 20 22 23 21 18 15 16 15 7 6
9 11 12 13 13 12 12 12 10 7 6 6 7 6 7 7 7 5 5 6 4 3 3 4 5 6 6 6 7 7 7 7 7 7 8 8 8 9 10 12 12 12 14 14 14 15 15 15 16 17 16 18 21 22 21 22 24 24 23 22 22 23 23 22 24 26 26 26 26 22 19 24 26 28 29 27 25 25 26 27 25 19 15 17 18 18 21
8 9 10 11 10 8 8 10 10 8 7 8 9 8 7 7 6 4 4 6 5 4 5 5 5 6 6 6 6 4 4 6 8 8 7 7 7 8 9 10 11 13 13 13 14 14 14 14 16 16 16 18 20 22 21 22 24 23 22 21 21 22 23 23 25 27 26 26 26 23 19 17 17 21 27 31 33 34 34 34 34 31 29 25 20 21 27
9 11 13 11 7 5 8 11 12 11 10 10 10 9 7 7 7 6 5 6 6 6 6 6 6 7 8 8 6 4 3 7 8 6 6 6 6 7 8 9 11 12 11 12 13 13 13 14 15 15 16 17 20 21 21 22 23 22 22 21 21 21 23 24 25 26 26 26 26 24 22 20 17 15 17 20 25 29 33 37 40 39 36 33 30 28 28
14 14 14 12 10 10 12 13 13 11 9 10 11 10 7 6 7 6 6 6 6 6 6 6 5 6 7 7 8 6 4 6 5 5 4 7 5 4 7 8 9 11 11 11 12 12 13 13 14 14 16 16 19 20 19 20 22 21 21 21 20 20 22 23 23 25 25 25 26 25 23 22 21 19 17 17 19 22 26 31 37 39 39 38 38 37 34
12 12 13 13 14 14 13 12 12 10 9 9 10 9 7 5 6 7 6 6 6 7 6 5 4 6 6 5 4 3 5 6 4 3 5 6 2 4 6 7 8 9 10 10 11 11 12 13 13 13 14 15 18 18 17 20 21 20 21 23 20 19 21 23 22 23 24 24 26 26 25 24 24 23 21 19 18 19 20 23 28 34 37 38 39 40 40
10 11 13 14 15 13 11 11 11 10 9 9 8 8 7 5 4 5 7 7 6 7 6 4 4 6 6 5 4 4 4 6 5 4 5 3 4 5 5 6 7 8 9 9 10 11 12 13 12 13 13 15 17 16 16 18 19 18 22 26 22 18 21 22 21 21 22 23 25 26 26 26 26 26 25 23 21 20 20 21 23 26 30 34 37 40 42
12 12 13 14 13 12 12 11 9 9 11 10 7 8 9 6 7 6 7 9 7 6 5 4 5 5 5 4 5 4 3 4 7 7 4 3 4 4 4 5 7 7 7 8 9 10 11 12 11 11 12 13 15 15 14 16 17 16 21 27 25 20 19 20 20 19 20 21 23 25 26 27 26 26 24 24 24 23 21 20 20 21 24 28 31 35 38
12 12 13 13 12 11 11 10 9 9 10 9 7 8 9 6 6 7 7 8 7 5 6 6 5 4 4 5 6 5 4 6 6 5 3 2 2 3 4 5 6 6 6 7 8 9 11 11 10 10 11 12 14 14 13 13 13 15 20 27 27 22 18 18 18 18 18 19 21 22 23 25 26 25 24 23 23 22 22 22 23 24 26 29 30 33 36
11 12 12 13 12 10 10 10 11 12 11 9 8 8 7 7 8 8 7 7 7 6 7 7 6 5 5 5 5 6 6 4 4 3 2 1 1 2 4 5 5 5 4 6 8 9 10 10 10 10 10 12 13 13 12 11 9 11 17 24 25 23 19 16 16 17 16 18 20 21 22 23 24 25 25 24 23 22 22 24 26 28 30 32 34 35 36
11 11 11 11 11 11 12 13 13 14 12 10 9 10 8 8 9 8 7 8 7 6 7 7 6 6 6 5 6 7 6 4 3 4 2 1 1 2 3 4 4 4 4 6 8 9 9 9 10 9 10 12 13 12 12 12 9 8 13 19 21 21 19 17 16 17 17 17 18 20 21 21 21 22 23 23 23 24 24 25 27 28 29 31 33 34 34
13 13 13 12 10 10 14 14 12 12 11 9 9 10 9 9 9 9 8 8 7 7 8 8 6 6 6 6 7 7 5 3 4 4 3 1 1 1 2 3 3 3 4 5 7 8 8 8 9 9 10 11 12 11 11 13 11 7 9 13 15 16 17 17 16 16 17 17 17 18 19 19 19 21 22 22 22 23 23 25 26 27 28 30 31 31 32
14 14 15 14 11 10 12 12 11 11 10 8 8 9 8 8 9 10 9 7 8 9 9 8 7 8 9 10 9 6 5 4 6 6 5 3 2 1 1 2 1 1 2 4 5 6 7 7 8 9 10 10 11 11 11 13 13 10 8 9 9 10 13 15 15 14 14 14 15 15 15 16 17 20 21 21 21 21 21 22 24 26 26 29 30 30 29
13 13 12 12 11 10 9 9 11 11 8 7 7 7 6 6 7 8 8 8 9 9 8 8 10 10 9 9 8 7 6 6 7 7 6 5 3 2 1 1 1 0 1 3 4 5 6 7 8 9 9 9 10 11 11 11 13 12 9 9 8 8 8 11 12 12 11 11 13 14 14 14 15 16 17 18 19 21 21 20 21 22 23 25 27 27 27
11 11 10 11 11 8 6 7 9 8 6 7 8 6 4 4 5 7 9 9 9 9 9 10 9 6 4 5 6 8 7 6 6 6 7 7 4 3 2 2 2 2 2 1 3 4 5 6 7 8 8 8 9 10 11 11 11 11 10 9 9 9 9 9 11 11 10 9 11 13 13 13 13 14 16 17 17 18 20 19 17 17 18 20 22 24 26
10 11 11 12 13 9 8 9 10 10 9 8 8 7 5 5 6 8 8 8 9 11 11 9 6 5 5 6 8 9 9 8 7 5 6 6 5 3 3 3 3 3 3 3 3 4 4 4 5 7 8 7 7 9 10 10 10 10 10 9 9 9 9 10 11 11 11 11 11 10 10 10 12 14 15 16 16 16 16 17 16 16 16 16 17 19 21
10 10 9 10 12 10 7 7 8 11 10 8 6 5 6 7 8 8 9 10 11 11 8 6 6 6 7 8 9 9 10 9 8 6 5 6 5 4 4 4 3 3 3 3 4 3 3 3 4 6 7 6 6 8 9 9 9 10 10 9 9 9 9 10 10 11 11 12 12 11 10 10 12 14 14 15 15 15 15 15 15 15 15 15 16 17 18
11 11 9 8 9 9 6 5 7 9 10 9 8 8 8 8 9 11 12 12 12 9 7 7 7 7 8 9 10 10 10 9 8 7 7 6 6 5 5 5 5 5 4 3 4 3 2 2 3 6 7 5 5 7 7 7 9 11 10 8 8 9 9 9 10 10 11 11 11 12 12 11 12 13 13 14 14 15 15 14 14 14 15 15 16 16 17
10 12 12 10 8 8 8 7 9 10 11 11 11 10 9 9 10 11 12 12 10 9 8 8 9 9 9 10 10 10 10 9 8 8 8 7 6 6 6 5 4 3 2 4 5 3 2 1 3 5 6 5 5 6 6 6 9 10 9 8 8 9 8 9 9 9 10 11 11 11 12 12 12 12 12 13 13 14 14 14 14 14 14 15 15 16 16
8 9 11 11 8 7 8 8 8 10 10 10 8 6 6 7 8 11 12 12 11 11 11 10 10 10 11 11 10 10 10 10 9 8 8 8 7 7 5 3 3 3 3 5 4 1 1 3 4 5 5 5 5 5 4 7 9 9 8 7 8 8 8 8 8 8 9 10 10 10 11 11 12 12 12 12 13 13 13 14 14 14 14 14 15 16 16
5 6 8 9 8 7 6 7 8 10 10 10 9 6 6 8 9 11 12 12 11 12 12 11 11 10 11 11 10 10 11 11 10 10 9 8 8 7 5 4 6 5 4 6 5 1 1 3 4 4 4 5 5 4 4 7 9 8 7 7 7 7 8 8 8 8 9 9 9 10 10 10 11 11 12 12 12 13 13 14 14 14 14 14 15 15 16
6 6 7 7 6 7 7 8 9 11 11 11 10 8 7 10 12 12 12 12 12 13 13 12 12 11 11 11 11 11 11 11 11 10 10 9 9 8 7 7 9 8 7 7 6 2 2 4 3 3 2 3 4 3 4 7 8 6 6 7 7 7 7 8 8 8 8 8 9 9 9 9 10 10 11 11 12 12 12 13 13 14 14 14 15 15 16
7 8 8 7 6 7 8 9 10 10 10 10 9 7 9 12 13 12 12 12 13 14 13 12 11 11 11 11 11 11 11 12 12 11 10 10 9 7 4 8 12 11 9 8 6 3 3 5 2 2 1 1 1 2 4 7 7 5 5 6 7 7 7 7 7 8 8 8 9 9 9 9 9 10 10 10 11 11 12 12 12 13 13 14 14 14 15
8 8 8 7 7 8 9 10 10 9 8 9 9 10 12 15 15 13 13 13 14 14 13 12 11 10 10 11 12 11 11 11 11 10 10 10 8 3 4 10 12 10 9 9 7 3 4 6 2 2 0 3 4 3 5 6 5 4 5 5 6 6 6 7 7 7 7 8 8 8 9 9 9 9 9 10 10 11 11 12 12 12 12 13 13 14 14
9 8 7 7 8 9 10 10 9 8 8 9 9 9 11 13 15 15 14 14 15 15 13 12 12 12 12 12 11 11 11 11 11 11 10 10 8 5 6 10 11 10 11 11 7 4 6 6 3 3 3 6 5 4 5 5 3 3 4 4 5 5 6 6 6 7 7 7 8 8 8 9 9 9 9 10 10 10 10 11 11 11 11 12 12 12 13
9 10 11 11 11 10 10 10 9 9 9 8 7 9 12 14 15 15 15 15 15 15 14 13 13 14 14 13 12 12 11 11 12 12 10 8 7 9 12 12 10 10 12 11 8 6 6 5 3 3 6 8 7 5 4 3 2 3 3 4 4 5 6 6 6 6 6 6 7 7 7 8 8 9 9 9 9 10 10 10 10 11 11 11 11 12 12
10 11 12 12 11 11 12 12 12 12 10 7 6 9 13 15 14 14 15 16 15 15 15 14 13 14 14 13 13 12 11 11 12 12 9 5 6 12 16 15 11 10 12 11 8 6 7 6 3 5 8 9 6 4 3 2 2 3 3 4 4 4 5 6 6 6 6 6 7 7 7 7 8 8 8 9 9 9 9 9 10 10 10 10 11 11 11
11 11 12 12 12 12 12 12 11 11 9 7 6 8 13 15 15 15 16 16 15 15 15 14 14 14 15 14 14 13 12 11 11 10 8 8 11 16 19 16 13 12 13 12 9 8 7 4 4 7 9 8 6 4 2 2 3 3 3 4 4 4 5 5 5 5 6 5 5 6 7 7 7 7 8 8 8 8 8 8 8 9 9 9 10 10 10
12 12 13 13 13 13 12 11 9 8 8 9 9 10 13 15 16 16 17 16 16 15 15 14 14 15 15 14 14 14 13 11 10 9 11 12 14 16 18 17 15 14 13 12 11 10 7 4 4 8 10 8 5 3 1 2 3 3 3 4 4 5 5 5 5 5 5 4 4 5 6 6 7 7 7 7 8 8 8 8 8 7 7 8 8 9 9
14 15 16 15 14 13 12 9 7 7 9 12 12 12 14 16 15 15 16 17 17 16 15 14 13 14 15 15 14 14 13 12 11 9 12 15 15 15 16 16 15 14 12 10 9 9 8 6 6 10 11 7 4 2 2 3 4 3 4 5 5 5 4 5 5 5 5 5 5 6 6 6 6 7 7 7 7 8 8 8 8 8 8 8 8 8 8
15 14 13 12 12 12 12 9 8 8 11 12 11 11 12 13 12 12 14 16 16 16 16 15 14 14 15 15 14 13 13 12 9 8 12 15 16 15 17 16 14 14 13 11 9 8 8 7 9 12 11 6 3 2 3 4 4 4 4 5 5 5 5 6 6 6 5 5 5 6 6 6 6 7 7 7 7 7 6 6 7 7 8 8 7 7 7
14 13 12 11 12 14 14 12 12 12 13 13 14 15 15 15 14 14 16 17 16 15 15 15 15 15 15 16 15 14 13 12 10 10 12 14 15 15 16 15 15 15 16 13 10 9 7 7 11 13 10 5 4 5 6 5 5 5 5 5 5 5 5 6 6 5 5 5 6 6 6 6 6 6 7 7 6 6 6 5 5 6 6 6 6 7 7
14 15 15 14 14 15 16 16 16 16 14 11 12 12 13 13 13 13 14 16 17 17 17 16 15 16 17 17 16 15 14 13 13 14 13 13 14 16 16 15 15 17 17 13 10 10 10 9 12 14 11 6 5 7 8 7 6 6 5 5 5 5 5 5 5 5 5 5 5 5 5 5 6 6 6 6 6 6 6 5 5 6 6 6 6 6 6
Wind_Direction
274 277 278 276 274 273 277 281 281 280 277 269 263 261 262 268 270 270 285 298 290 295 311 313 327 354 346 343 352 331 316 326 336 334 330 327 321 322 332 338 341 341 335 334 339 340 339 339 336 335 338 339 337 329 320 315 313 312 311 309 308 306 304 302 299 299 301 301 306 315 314 308 287 248 236 241 242 235 225 222 222 218 215 214 214 215 218
279 280 279 280 282 284 285 283 279 277 276 271 266 264 265 265 265 271 282 281 277 291 308 312 342 357 330 329 334 323 325 338 339 326 324 328 325 326 335 339 337 336 334 335 334 333 340 344 338 336 335 332 333 331 324 316 315 314 312 310 308 306 302 300 298 297 301 304 309 317 317 314 302 258 238 244 246 239 232 226 225 225 224 221 221 222 222
283 283 281 282 289 295 293 287 282 280 278 274 269 266 266 265 265 273 284 286 284 285 294 307 330 331 320 325 330 330 334 339 329 316 322 331 328 328 335 337 336 334 333 334 331 331 343 348 338 331 327 323 326 330 327 320 317 315 312 309 306 305 302 298 296 299 305 310 312 317 320 319 308 268 246 252 250 240 236 233 228 228 229 227 230 232 232
284 286 285 288 295 295 286 282 283 282 277 277 281 277 271 269 271 275 278 280 284 293 315 316 321 321 320 329 336 331 331 337 327 319 324 328 327 330 333 334 337 337 334 334 332 335 348 349 332 321 320 321 326 331 329 324 319 315 312 309 305 304 304 300 300 306 313 318 319 322 326 327 318 277 238 244 253 247 241 238 235 235 234 230 232 236 240
288 290 294 302 307 296 287 280 286 297 294 294 299 295 290 289 282 275 269 270 288 319 322 315 319 323 325 337 339 325 329 351 344 325 324 326 330 334 334 338 342 340 338 336 334 337 342 334 322 319 320 324 330 335 332 325 321 318 313 312 311 310 311 310 310 315 320 320 323 326 326 327 328 311 257 242 242 239 238 238 239 243 241 235 234 235 239
286 291 298 303 293 285 284 216 219 266 285 291 297 297 298 297 281 268 267 273 288 309 312 311 313 316 327 336 325 322 358 24 340 323 325 330 336 336 334 338 340 337 336 334 333 335 331 316 317 321 323 328 335 342 340 328 323 323 320 319 320 318 322 324 322 324 326 325 325 325 322 323 330 329 303 271 246 232 233 235 237 242 242 238 236 235 234
277 288 294 286 274 279 307 269 257 247 221 259 305 298 292 288 280 276 273 276 288 301 300 302 303 312 333 332 324 6 64 30 323 322 327 333 337 335 333 336 341 343 339 333 333 334 328 314 311 317 330 337 338 346 348 335 325 327 326 323 324 326 329 330 328 329 330 328 326 324 322 324 327 332 330 306 271 245 234 230 230 237 240 236 232 233 237
269 274 274 267 275 303 310 300 308 56 117 336 324 304 300 304 295 286 282 284 300 307 295 301 319 331 330 320 355 62 62 345 328 328 330 336 338 335 335 336 342 348 343 336 333 332 331 326 318 316 334 342 338 343 349 343 331 328 329 327 328 331 331 329 327 328 328 326 325 325 327 328 327 330 340 333 311 285 258 238 231 235 239 237 229 224 228
270 273 270 269 281 296 301 302 358 61 57 4 359 315 298 297 283 278 285 286 290 293 295 315 336 333 313 299 84 76 35 346 348 342 339 342 336 335 336 333 339 346 344 338 332 329 331 333 330 327 331 339 341 342 346 346 338 331 332 332 331 330 330 328 326 325 325 325 325 327 330 331 332 335 336 334 326 308 283 262 251 245 244 243 236 225 221
275 277 273 273 278 281 281 50 70 49 46 60 45 306 293 296 286 289 304 305 296 301 314 328 329 318 306 289 126 87 20 6 359 343 343 341 330 331 334 334 341 346 342 337 332 329 331 333 333 333 327 330 343 345 343 342 338 333 334 333 330 329 329 328 327 325 325 326 326 329 332 332 334 334 330 327 325 312 294 277 263 254 252 253 249 237 227
269 269 268 269 269 270 284 78 121 115 88 82 355 286 297 20 41 35 7 332 322 325 329 327 318 309 307 303 51 26 2 354 343 335 342 339 329 328 333 339 345 342 338 337 332 328 331 333 334 334 327 324 343 348 343 336 332 332 334 332 328 327 326 326 327 327 327 328 328 328 330 330 329 327 323 320 318 311 302 291 277 269 262 259 258 250 236
250 251 255 265 268 276 301 312 230 130 106 87 293 283 301 33 27 33 10 333 328 333 328 319 314 313 313 314 332 347 343 335 332 336 341 339 330 327 334 346 348 341 340 340 332 329 332 334 335 336 332 332 345 348 341 336 332 329 329 329 327 325 324 325 328 328 328 328 328 327 325 324 322 323 321 318 315 312 307 297 288 280 262 251 255 254 242
246 245 251 263 269 284 303 317 103 113 107 287 289 292 323 18 354 2 360 335 325 327 327 317 310 314 321 320 322 330 329 324 328 333 333 333 328 326 338 355 353 343 342 338 330 329 332 334 336 337 337 340 345 345 342 340 336 332 330 330 329 327 327 328 328 329 329 328 327 325 323 321 321 320 320 318 315 312 306 295 285 277 263 253 253 253 247
241 244 252 258 263 293 354 65 109 121 218 287 312 282 212 294 339 334 324 318 315 324 325 309 301 311 320 321 320 324 324 323 328 330 328 331 329 328 339 355 351 343 341 335 328 329 333 336 338 338 340 345 348 347 344 341 338 337 337 335 331 329 331 332 331 331 332 331 328 325 322 321 320 318 317 316 312 307 303 296 285 270 256 251 252 253 252
243 249 250 254 267 323 62 79 128 161 216 301 12 24 286 314 334 320 304 300 307 332 324 296 299 310 314 317 321 322 323 324 326 327 327 331 333 333 341 348 347 344 340 332 328 332 336 339 339 339 345 353 352 347 344 341 339 337 335 335 336 335 335 336 336 335 334 332 330 326 323 321 318 317 317 316 313 308 303 298 288 273 249 232 232 240 245
252 251 241 246 312 14 67 311 288 259 260 294 327 322 309 324 323 305 300 298 312 9 321 290 299 312 314 319 322 322 322 322 320 325 330 331 335 341 342 342 345 346 338 328 329 336 340 340 339 341 350 357 355 348 344 343 340 336 333 338 344 343 340 341 343 341 336 333 329 325 323 322 319 319 319 318 317 310 302 296 289 280 262 233 218 222 230
272 271 270 285 304 302 291 288 287 279 279 288 290 282 288 304 305 300 296 292 306 17 309 292 300 310 312 317 320 321 322 319 320 327 326 331 353 359 344 336 343 344 333 327 334 340 341 341 341 345 355 1 357 350 345 344 341 338 339 343 346 346 345 346 348 345 338 333 330 326 323 321 321 324 327 324 321 317 312 305 296 285 273 246 213 202 213
280 273 267 271 277 285 298 304 293 281 280 283 280 277 279 284 288 290 289 291 306 340 281 285 296 306 312 315 317 320 320 317 322 328 331 349 11 5 340 333 341 338 328 331 340 342 340 343 344 348 358 4 1 352 348 347 345 343 344 345 345 348 351 350 350 347 340 336 333 327 324 322 324 333 337 332 335 345 341 330 319 308 296 274 229 193 189
284 274 267 276 284 300 311 304 294 288 285 278 269 270 274 275 276 280 285 289 296 275 260 277 300 311 314 316 317 322 326 325 326 331 344 4 7 352 337 336 337 333 331 339 345 342 341 348 352 352 357 4 4 356 351 350 350 348 347 347 346 350 354 353 353 351 346 343 338 335 346 3 2 355 351 349 4 14 4 346 334 325 321 316 283 203 176
271 270 277 286 290 293 293 288 285 286 288 289 286 271 263 260 259 269 279 269 261 266 269 283 303 308 312 319 324 329 328 323 326 337 352 1 356 345 341 336 330 334 342 347 347 342 344 354 357 353 358 7 5 358 354 354 355 352 350 349 350 354 356 358 359 356 352 351 347 350 22 41 34 22 17 20 31 32 20 7 352 332 333 354 358 11 101
276 274 278 280 278 278 283 287 290 296 311 323 320 300 278 262 249 246 260 261 254 251 257 269 289 301 311 317 315 316 317 317 329 345 350 352 352 347 335 326 332 349 354 349 344 342 349 358 356 355 7 14 6 359 357 358 359 357 352 351 354 358 359 2 4 2 360 0 358 2 32 54 53 51 51 50 50 44 36 31 25 17 25 32 24 34 57
271 271 275 278 278 280 288 296 302 310 318 312 300 295 296 289 275 257 254 261 251 232 237 254 271 287 297 297 289 297 317 319 326 340 348 349 349 339 326 329 345 357 355 347 341 344 358 1 354 0 17 17 6 2 2 3 3 1 357 355 357 0 1 2 6 8 7 8 8 9 21 39 50 55 56 53 51 48 44 43 43 46 55 57 52 54 60
273 280 283 285 289 281 275 281 287 294 297 292 284 281 280 280 279 272 262 261 255 242 247 256 262 275 292 309 328 1 348 312 324 1 13 344 326 322 328 342 350 351 353 349 342 351 6 0 351 4 21 15 6 7 8 7 8 7 3 360 359 1 2 1 6 12 13 12 14 15 17 21 23 28 35 38 40 42 44 46 46 48 54 61 66 67 66
275 281 283 284 284 276 272 277 284 288 289 287 285 282 272 261 264 262 254 255 255 249 248 255 279 308 327 343 359 7 326 306 345 35 352 309 307 330 341 348 349 348 352 349 343 355 8 355 349 10 23 14 8 10 11 12 14 13 9 4 1 0 0 0 6 13 15 16 19 20 20 21 23 24 24 25 27 30 35 43 47 47 48 53 60 65 67
269 277 281 280 277 275 276 279 280 281 280 278 279 280 276 265 261 263 261 253 246 250 257 265 300 335 353 355 341 319 298 312 5 26 292 290 11 29 354 349 353 349 349 345 344 357 2 348 350 14 24 13 9 12 14 17 20 18 13 10 7 2 360 1 7 13 15 17 21 23 22 23 25 27 29 28 27 26 27 35 45 48 47 48 53 59 63
263 268 271 270 268 267 266 266 267 269 269 268 268 272 268 241 207 236 264 260 243 249 264 273 294 325 347 344 312 300 315 323 317 281 273 310 32 21 351 351 353 345 342 343 348 359 356 344 353 17 21 11 10 16 19 22 24 22 17 17 19 12 5 8 12 14 15 17 19 21 22 22 24 29 32 33 31 29 26 26 32 40 44 45 48 53 57
268 267 266 267 268 263 257 256 260 267 270 269 269 272 266 229 164 174 240 255 246 243 249 257 282 312 332 318 286 260 217 250 269 275 296 2 24 9 351 352 345 336 338 344 351 359 355 347 357 17 17 8 9 16 20 20 22 22 21 23 27 22 14 16 19 19 18 18 17 20 23 23 23 26 30 33 35 34 31 27 26 30 36 39 43 49 52
275 271 265 262 262 263 264 265 265 265 267 268 267 265 262 240 188 183 218 238 231 223 233 246 263 281 284 283 282 266 226 232 264 296 338 7 14 3 351 343 336 332 340 350 355 359 356 352 1 17 16 6 7 13 16 16 21 25 26 28 30 28 22 21 22 23 25 23 18 20 23 23 23 24 27 32 36 37 37 36 34 34 33 34 39 47 51
276 271 263 256 255 258 263 267 269 268 266 265 264 257 246 232 223 217 221 230 226 221 234 244 247 254 261 272 284 285 278 274 284 300 308 315 2 3 344 335 333 334 349 4 3 359 355 355 3 14 11 2 5 11 10 7 20 35 33 33 35 34 30 27 25 24 27 27 24 23 25 25 23 24 26 30 34 36 37 37 37 36 33 31 33 39 42
280 275 269 261 255 254 253 251 253 258 257 252 253 250 236 229 235 230 219 224 227 226 234 241 244 255 263 262 261 265 271 282 283 274 270 281 14 355 339 334 338 349 4 8 3 357 355 356 5 11 5 357 2 12 6 356 2 35 40 36 38 40 38 35 33 31 28 28 27 26 28 28 27 25 25 27 30 32 35 35 37 37 35 32 31 30 30
281 279 273 264 252 250 255 254 249 252 253 246 244 245 235 227 233 231 221 220 225 229 232 235 240 251 256 253 253 253 249 254 264 256 245 240 249 303 340 342 345 360 4 2 358 357 355 358 4 6 358 353 1 13 8 352 347 11 42 40 39 43 43 39 38 39 36 33 31 31 31 31 30 27 27 27 27 29 31 33 35 36 36 35 35 32 29
279 277 271 265 253 244 249 253 251 251 251 243 239 240 234 222 224 229 226 220 223 231 232 232 238 241 233 228 229 219 194 208 236 234 221 219 216 203 323 341 341 359 4 2 358 356 358 4 6 360 352 353 3 13 10 355 345 353 28 36 28 35 43 41 38 40 40 41 41 39 37 36 34 33 34 34 32 31 31 33 36 38 39 40 37 33 31
281 277 273 270 262 248 245 255 260 261 265 267 258 246 234 224 223 228 229 222 223 230 232 232 237 233 216 206 206 191 178 202 229 227 214 209 201 187 202 271 278 249 29 16 5 2 7 11 5 354 347 352 4 12 12 3 351 352 13 27 19 14 29 36 35 35 38 49 55 52 47 46 42 38 38 40 39 38 39 39 40 43 45 45 42 40 40
269 275 278 275 267 248 223 240 260 264 268 277 278 268 249 227 217 222 228 225 222 228 233 234 232 217 171 168 182 177 178 205 228 220 203 196 190 184 189 214 248 226 165 84 23 20 23 15 7 2 355 356 6 13 16 15 4 355 1 17 21 12 10 19 27 27 27 39 58 61 58 57 56 51 46 42 41 43 46 46 45 45 46 46 45 45 46
254 260 265 269 268 246 202 209 241 248 237 240 256 262 250 224 213 219 222 218 221 231 232 223 204 168 154 173 184 181 188 211 222 206 183 176 174 187 203 212 230 221 178 137 67 41 30 14 12 17 13 8 11 14 18 22 16 358 350 2 18 20 17 18 24 26 22 23 38 57 62 58 55 54 52 48 45 46 49 50 46 44 44 44 43 42 42
272 268 267 275 278 265 217 198 233 253 251 240 243 255 248 229 221 221 215 211 221 229 219 185 167 168 177 185 189 191 198 208 210 197 181 176 179 193 206 210 220 222 194 149 104 64 33 21 29 26 18 14 15 13 15 23 20 6 359 7 19 22 25 26 27 30 28 24 28 40 46 43 40 41 44 48 48 45 46 49 46 43 43 41 40 39 37
295 291 290 291 290 285 268 220 221 251 265 258 243 240 237 225 219 219 217 215 215 213 193 174 181 192 191 189 195 200 201 199 196 188 183 181 183 189 201 210 214 217 207 149 107 70 19 18 44 29 17 14 16 13 13 24 26 18 17 25 27 23 25 30 31 32 32 29 29 33 35 35 37 37 38 43 46 43 43 45 44 44 44 43 39 38 38
296 294 293 292 290 288 283 252 222 228 245 251 243 231 220 213 210 210 212 211 200 188 186 191 193 195 195 194 197 201 196 189 186 184 181 180 185 194 205 210 201 192 162 117 101 64 1 27 50 25 15 17 17 12 19 40 40 30 26 32 36 30 27 31 35 36 34 31 32 37 37 35 35 36 37 40 44 45 43 43 43 45 48 47 44 42 40
287 289 293 296 294 294 296 284 258 246 251 259 260 235 205 204 203 196 201 207 199 185 187 195 195 197 201 198 196 198 193 184 183 186 184 182 187 196 196 160 123 122 124 120 116 66 2 84 66 25 15 21 13 8 30 49 45 38 33 35 40 40 35 32 35 40 41 36 33 38 42 40 37 36 37 38 40 43 42 41 41 43 45 46 45 44 42
290 290 294 297 298 296 294 290 283 277 271 268 265 246 207 200 197 190 197 207 199 184 186 195 197 200 203 200 197 199 193 182 180 187 187 182 182 193 193 155 137 148 152 133 129 177 235 98 66 29 23 23 6 5 48 50 41 40 44 41 41 45 44 39 38 39 42 41 38 38 43 45 43 41 40 39 39 40 40 39 39 39 41 41 42 42 40
299 293 290 293 298 298 295 289 285 280 270 262 262 252 215 197 196 196 201 201 189 182 189 199 202 204 206 202 201 200 190 178 179 190 191 182 183 201 206 170 151 155 159 144 134 124 90 88 66 26 28 21 359 12 61 49 35 39 50 48 47 50 47 44 45 45 43 45 44 41 42 45 47 46 45 44 42 41 40 40 39 39 39 40 40 40 41
308 310 310 311 306 299 294 287 281 276 267 257 251 230 196 189 194 202 205 197 185 185 194 199 200 204 206 203 201 200 188 177 180 192 193 188 197 218 201 151 150 161 166 152 139 112 96 107 93 334 340 112 132 87 64 43 32 42 53 50 52 56 51 47 49 48 47 51 51 47 46 49 50 49 48 48 46 44 43 42 41 40 40 40 40 40 41
302 306 311 311 308 304 300 290 281 278 270 253 232 204 188 191 197 201 199 191 184 187 196 197 192 195 204 205 201 197 186 179 185 194 194 195 206 224 121 134 153 169 164 146 140 143 142 145 169 303 304 147 146 110 62 40 33 47 56 53 57 61 59 57 56 51 50 54 55 51 50 53 54 53 51 49 48 47 46 45 44 43 42 42 42 41 42
295 296 294 290 291 299 302 293 283 279 271 252 222 189 184 198 204 202 197 191 187 190 198 199 192 194 204 208 203 197 191 188 189 193 193 192 194 180 148 150 161 165 155 145 141 144 151 162 208 251 178 150 140 104 62 42 42 61 64 62 67 69 65 64 63 59 56 57 58 57 56 56 57 59 57 54 52 50 48 48 49 47 45 45 44 43 42
293 292 291 289 289 291 293 288 280 276 270 251 205 180 191 207 212 207 200 195 190 192 199 201 196 196 202 206 205 202 200 196 194 195 197 198 192 181 174 171 169 165 159 152 145 152 173 195 222 191 156 148 134 104 67 47 67 92 85 76 79 81 79 75 71 68 64 62 62 64 64 62 61 62 61 61 59 54 50 50 52 51 50 49 45 43 44
285 283 284 286 287 285 285 285 282 274 261 233 187 186 202 211 212 208 205 201 196 195 200 202 198 195 198 203 204 203 203 201 198 196 194 185 170 169 172 175 177 173 164 156 153 177 202 218 213 164 157 152 133 101 76 79 111 109 100 96 93 89 88 87 84 79 75 71 67 69 72 73 73 71 67 66 65 60 55 55 55 53 53 53 48 46 48
283 279 277 278 278 278 280 280 277 267 250 227 201 199 206 209 211 212 212 209 203 198 201 204 202 197 198 201 200 200 201 201 194 181 163 148 152 160 166 172 175 169 161 160 168 182 192 195 178 167 163 151 125 94 78 122 128 116 108 109 104 94 95 100 98 94 92 91 87 87 85 81 81 82 77 72 69 64 59 58 58 56 55 55 51 48 49
286 284 280 273 269 271 273 271 264 251 237 230 223 208 198 200 208 214 214 214 212 208 206 206 204 199 196 198 200 199 200 201 198 181 162 156 158 161 165 171 176 173 168 171 183 192 196 199 179 167 161 151 136 118 120 133 126 117 113 114 107 97 96 98 96 96 103 104 99 100 96 88 85 88 85 79 77 74 66 60 59 59 59 57 53 52 53
284 286 286 278 269 262 261 262 262 248 231 230 232 217 197 194 205 213 212 211 214 215 212 210 208 200 195 196 200 200 198 204 213 201 170 157 158 164 171 178 183 180 170 170 187 201 208 209 184 165 158 150 139 139 154 148 134 120 114 114 110 104 108 110 106 102 105 104 100 99 99 94 92 91 89 86 86 85 79 73 69 67 67 65 59 56 56
288 289 290 287 280 269 259 252 253 247 231 222 224 216 196 188 199 213 211 206 208 211 211 210 209 203 195 192 196 199 200 203 207 190 161 152 156 168 177 184 187 179 166 164 181 196 194 186 176 168 159 148 145 165 161 148 140 136 131 126 122 120 128 131 123 110 104 108 111 109 107 103 102 100 98 95 93 91 89 86 80 72 69 68 64 61 61
283 283 282 285 291 291 282 268 260 257 242 222 213 209 198 190 195 210 213 207 203 205 209 209 206 202 197 191 189 195 201 195 176 161 157 155 156 165 175 183 185 176 166 165 176 186 184 178 175 171 164 159 174 177 167 155 150 149 143 136 131 126 124 128 130 125 118 116 115 114 114 114 114 110 106 104 103 100 97 95 87 77 74 74 71 68 66
286 285 283 282 286 290 285 273 266 264 254 224 197 190 189 189 193 206 216 214 208 207 211 214 209 203 200 192 184 187 195 186 167 163 169 165 156 159 168 176 178 176 173 171 175 180 179 177 177 176 174 177 184 182 178 174 165 153 148 150 149 140 131 132 138 139 135 130 128 126 122 119 119 118 115 114 114 110 104 100 94 88 83 81 77 73 71